This demonstration page uses our WeatherBlox Daily Observations layout. Learn more.

Left ArrowRight Arrow

38.89511, -77.03637

Hourly Observations for May 11, 2021

Temp ( °F °C ) Dew Point ( °F °C ) Humidity (%) Winds ( mph kmh ) Pressure ( in mb ) Visibility ( mi km ) Precip ( " mm )
12:52 am 00:52 Mostly Clear 53 11.7 36 2.2 52 52 NNW 7 11 30.06 1018 10 16 N/A
1:52 am 01:52 Mostly Cloudy 55 12.8 34 1.1 45 45 NW 8 13 30.07 1018 10 16 N/A
2:52 am 02:52 Cloudy 54 12.2 38 3.3 55 55 NNW 6 9 30.07 1018 10 16 N/A
3:52 am 03:52 Cloudy 55 12.8 36 2.2 49 49 VRB 3 6 30.08 1019 10 16 N/A
4:52 am 04:52 Cloudy 56 13.3 34 1.1 44 44 N N/A 30.08 1019 10 16 N/A
5:52 am 05:52 Mostly Cloudy 54 12.2 38 3.3 55 55 N 6 9 30.09 1019 10 16 N/A
6:52 am 06:52 Mostly Cloudy 55 12.8 37 2.8 51 51 N 6 9 30.11 1020 10 16 N/A
7:52 am 07:52 Mostly Cloudy 58 14.4 36 2.2 44 44 NNW 6 9 30.13 1020 10 16 N/A
8:52 am 08:52 Mostly Sunny 61 16.1 37 2.8 41 41 NNW 9 15 30.14 1021 10 16 N/A
9:52 am 09:52 Mostly Sunny 63 17.2 35 1.7 35 35 WNW 8 13 30.14 1021 9 14 N/A
10:52 am 10:52 Mostly Sunny 65 18.3 37 2.8 36 36 WNW 12 19 30.14 1021 8 13 N/A
11:52 am 11:52 Mostly Sunny 65 18.3 35 1.7 33 33 N N/A 30.13 1020 10 16 N/A
12:52 pm 12:52 Mostly Sunny 69 20.6 38 3.3 32 32 W 13 20 30.11 1020 10 16 N/A
1:52 pm 13:52 Mostly Cloudy 68 20 37 2.8 32 32 VRB 6 9 30.09 1019 10 16 N/A
2:52 pm 14:52 Mostly Cloudy 67 19.4 37 2.8 33 33 W 10 17 30.08 1019 10 16 N/A
3:52 pm 15:52 Cloudy 66 18.9 38 3.3 36 36 NNW 10 17 30.06 1018 10 16 N/A
4:52 pm 16:52 Cloudy 66 18.9 40 4.4 39 39 NW 12 19 30.06 1018 10 16 N/A
5:52 pm 17:52 Mostly Cloudy 65 18.3 40 4.4 40 40 N 13 20 30.07 1018 10 16 N/A
6:52 pm 18:52 Cloudy 65 18.3 40 4.4 40 40 NNW 14 22 30.08 1019 10 16 N/A
7:52 pm 19:52 Mostly Cloudy 63 17.2 40 4.4 43 43 NNW 12 19 30.10 1019 10 16 N/A
8:52 pm 20:52 Cloudy 63 17.2 35 1.7 35 35 NW 13 20 30.11 1020 10 16 N/A
9:52 pm 21:52 Cloudy 61 16.1 34 1.1 36 36 NNW 15 24 30.14 1021 10 16 N/A
10:52 pm 22:52 Cloudy 59 15 33 0.6 38 38 NNW 12 19 30.16 1022 10 16 N/A
11:52 pm 23:52 Cloudy 58 14.4 32 undefined 38 38 NNW 15 24 30.19 1022 10 16 N/A

Powered by AerisWeather